Havre, MT

5:36 PM MDT on August 28, 2016 (GMT -0600)
Havre City-County

Weather History for KHVR - August, 2013

Change the Weather History Date:

Friday, August 16, 2013

  Actual Average Record
Temperature  
Mean Temperature 75 °F 68 °F  
Max Temperature 97 °F 85 °F 101 °F (1971)
Min Temperature 53 °F 52 °F 38 °F (2012)
Degree Days  
Heating Degree Days 0 1  
Month to date heating degree days 8 14  
Since 1 June heating degree days 129 177  
Since 1 July heating degree days 16 44  
Cooling Degree Days 10 5  
Month to date cooling degree days 62 99  
Year to date cooling degree days 258 320  
Since 1 June cooling degree days 251 309  
Growing Degree Days 25 (Base 50)    
Moisture  
Dew Point 51 °F    
Average Humidity 54    
Maximum Humidity 89    
Minimum Humidity 18    
Precipitation  
Precipitation 0.00 in 0.04 in 0.65 in (1989)
Month to date precipitation 0.93 0.56  
Year to date precipitation 14.89 8.12  
Snow  
Snow 0.00 in 0.00 in T in (1954)
Month to date snowfall 0.0 0.0  
Since 1 June snowfall 0.0 0.0  
Since 1 July snowfall 0.0 0.0  
Snow Depth 0.00 in    
Sea Level Pressure  
Sea Level Pressure 29.83 in    
Wind  
Wind Speed 4 mph (West)    
Max Wind Speed 12 mph    
Max Gust Speed 16 mph    
Visibility 10 miles    
Events Rain    
T = Trace of Precipitation, MM = Missing Value Source: NWS Daily Summary

Daily Weather History Graph

Daily Weather History Graph

Search for Another Location

Airport or City:

Trip Planner

Search our weather history database for the weather conditions in past years. The results will help you decide how hot, cold, wet, or windy it might be!

Date:

Astronomy

Aug. 16, 2013 Rise Set
Actual Time 6:14 AM MDT 8:31 PM MDT
Civil Twilight 5:39 AM MDT 9:05 PM MDT
Nautical Twilight 4:56 AM MDT 9:48 PM MDT
Astronomical Twilight 4:07 AM MDT 10:37 PM MDT
Moon 5:03 PM MDT (8/16) 1:10 AM MDT (8/16)
Length of Visible Light 15h 25m
Length of Day
14h 16m
Waxing Gibbous, 75% of the Moon is Illuminated
Aug 16
Waxing Gibbous
Aug 20
Full
Aug 28
Last Quarter
Sep 5
New
Sep 12
First Quarter

Hourly Weather History & Observations

Time (MDT) Temp. Dew Point Humidity Pressure Visibility Wind Dir Wind Speed Gust Speed Precip Events Conditions
12:53 AM 66.0 °F 48.0 °F 52% 29.84 in 10.0 mi Calm Calm - 0.00 in   Clear
1:53 AM 57.9 °F 51.1 °F 78% 29.85 in 10.0 mi West 6.9 mph - N/A   Clear
2:53 AM 60.1 °F 53.1 °F 78% 29.84 in 10.0 mi Calm Calm - N/A   Clear
3:53 AM 55.9 °F 50.0 °F 80% 29.85 in 10.0 mi West 3.5 mph - N/A   Clear
4:53 AM 53.1 °F 50.0 °F 89% 29.87 in 10.0 mi SW 5.8 mph - N/A   Clear
5:53 AM 55.0 °F 51.1 °F 86% 29.88 in 10.0 mi SSW 5.8 mph - N/A   Clear
6:53 AM 55.0 °F 50.0 °F 83% 29.88 in 10.0 mi Calm Calm - N/A   Clear
7:53 AM 60.1 °F 53.1 °F 78% 29.88 in 10.0 mi Calm Calm - N/A   Clear
8:53 AM 68.0 °F 55.9 °F 65% 29.88 in 10.0 mi WNW 4.6 mph - N/A   Clear
9:53 AM 73.0 °F 55.0 °F 53% 29.86 in 10.0 mi Calm Calm - N/A   Clear
10:53 AM 79.0 °F 54.0 °F 42% 29.86 in 10.0 mi Calm Calm - N/A   Clear
11:53 AM 84.0 °F 51.1 °F 32% 29.84 in 10.0 mi Calm Calm - N/A   Clear
12:53 PM 88.0 °F 51.1 °F 28% 29.82 in 10.0 mi Calm Calm - N/A   Clear
1:53 PM 91.0 °F 52.0 °F 26% 29.81 in 10.0 mi ENE 8.1 mph - N/A   Clear
2:53 PM 93.0 °F 46.9 °F 20% 29.79 in 10.0 mi East 6.9 mph - N/A   Clear
3:53 PM 93.9 °F 45.0 °F 18% 29.78 in 10.0 mi East 6.9 mph - N/A   Clear
4:53 PM 97.0 °F 46.9 °F 18% 29.78 in 10.0 mi Calm Calm - N/A   Clear
5:53 PM 97.0 °F 48.9 °F 19% 29.77 in 10.0 mi North 3.5 mph - N/A   Clear
6:53 PM 90.0 °F 51.1 °F 26% 29.77 in 10.0 mi NNE 6.9 mph - N/A   Clear
7:53 PM 87.1 °F 50.0 °F 28% 29.78 in 10.0 mi North 8.1 mph - N/A   Clear
8:53 PM 77.0 °F 52.0 °F 42% 29.80 in 10.0 mi Calm Calm - 0.00 in Rain Light Rain
9:53 PM 72.0 °F 54.0 °F 53% 29.83 in 10.0 mi WSW 5.8 mph - 0.00 in   Clear
10:53 PM 70.0 °F 53.1 °F 55% 29.84 in 10.0 mi SSW 4.6 mph - 0.00 in   Clear
11:53 PM 66.0 °F 54.0 °F 65% 29.85 in 10.0 mi South 9.2 mph - N/A   Clear